Location: Unspecified
(47.4992°N, 121.7766°W)
Time: 13:00:26
(UTC-08:00)

Resurs 1-4 Rocket - Visible Passes

Search period start: 09 February 2026 00:00
Search period end: 19 February 2026 00:00
Orbit: 797 x 813 km, 98.8° (Epoch: 9 February)

Date Brightness Start Highest point End Pass type
(mag) Time Alt. Az. Time Alt. Az. Time Alt. Az.
13 Feb 4.8 03:26:36 10° N 03:26:39 10° N 03:26:39 10° N visible
15 Feb 4.5 04:16:43 10° N 04:16:54 11° N 04:16:54 11° N visible
16 Feb 4.5 03:51:04 10° N 03:51:31 12° N 03:51:31 12° N visible
17 Feb 4.6 03:25:38 10° N 03:26:08 13° N 03:26:08 13° N visible
18 Feb 4.8 03:00:20 10° NNE 03:00:45 12° NNE 03:00:45 12° NNE visible
18 Feb 4.4 04:41:41 10° NNW 04:41:47 10° NNW 04:41:47 10° NNW visible
